GFSSGP_sfc_30mbdewp_159.txt.gz
Dewpoint
69 68 65 63 58 53 46 42 43 44 47 48 50 49 50 51 53 54 62 63 63 63 67 69 70 70 70 71 72 71 69 69 72 70 72 72 71 72 72 72 72 72 72 72 72 72 72 72 72
64 63 62 59 52 45 43 46 44 46 47 50 52 52 50 52 55 58 62 63 62 62 65 66 70 69 69 69 69 69 69 71 72 72 71 72 72 72 72 72 72 72 72 72 72 72 72 72 72
64 59 56 52 53 45 43 46 46 48 48 49 51 53 51 52 54 58 61 63 64 65 64 67 69 69 69 69 69 69 69 71 72 71 72 72 72 72 72 71 71 71 71 71 72 71 71 71 71
61 60 58 55 45 45 45 46 47 47 49 50 52 52 53 54 55 58 62 62 63 64 63 67 68 68 68 69 69 67 71 71 71 72 72 72 72 71 72 72 72 72 72 72 72 72 72 72 71
60 58 53 49 47 47 46 46 45 45 48 49 52 51 54 55 57 59 62 61 59 60 62 65 68 68 67 67 69 70 70 71 71 72 72 72 72 72 72 72 72 71 71 72 72 72 72 72 72
57 53 50 47 48 49 50 48 45 46 48 49 50 52 54 55 55 55 55 58 60 59 60 63 66 67 69 66 69 69 69 70 70 71 71 72 72 72 72 72 72 71 71 72 72 73 72 72 72
53 54 50 52 51 50 51 52 49 45 45 47 49 51 54 52 53 54 54 57 58 60 62 63 64 67 67 67 69 70 71 70 70 69 70 70 71 72 72 71 71 71 71 72 71 72 73 73 72
53 52 50 51 51 52 53 53 54 49 48 49 51 50 52 53 53 53 54 57 59 58 60 64 62 66 70 70 70 71 68 69 69 70 70 72 72 72 72 72 72 71 72 71 70 70 71 71 73
54 54 51 51 51 55 54 52 53 49 48 50 51 50 53 55 54 54 54 55 60 60 60 67 66 68 71 71 69 69 68 69 70 71 70 71 69 67 70 71 71 71 71 70 69 69 70 70 71
50 52 50 50 54 55 54 55 51 47 48 50 51 53 54 54 54 53 53 52 55 57 61 65 65 67 67 66 71 70 70 71 70 70 70 68 66 66 65 68 70 70 69 69 68 68 68 69 63
50 50 51 52 53 54 56 55 54 46 46 49 51 52 54 54 54 52 52 52 52 55 58 63 66 68 70 69 70 69 72 71 70 70 70 64 64 61 62 66 66 65 68 64 66 66 65 60 58
51 54 52 53 54 54 55 58 52 52 56 50 52 53 53 54 52 51 50 51 53 55 59 65 64 62 66 70 70 70 69 70 69 66 64 64 61 60 59 61 61 62 63 61 60 59 62 62 63
50 52 54 54 56 57 57 56 54 53 51 51 52 53 53 53 52 51 51 52 53 55 59 63 62 64 63 64 69 70 65 62 61 63 62 62 60 61 61 62 62 59 59 61 61 60 62 61 60
50 53 53 54 56 57 56 57 56 54 52 50 52 52 53 53 53 52 52 52 53 56 58 60 61 65 63 65 63 62 64 60 60 60 64 65 62 66 62 62 60 59 60 60 61 63 60 58 56
52 51 52 53 54 56 58 53 54 57 52 49 50 51 52 51 52 53 53 53 54 57 58 60 61 62 64 64 64 62 61 61 60 62 67 66 67 69 64 62 63 60 65 64 62 63 59 55 56
49 50 52 53 53 56 57 50 57 58 54 50 49 52 51 53 52 54 56 54 54 57 60 61 59 62 62 63 64 61 62 58 59 60 65 66 69 67 64 64 64 62 62 60 59 59 56 55 55
45 45 46 50 52 53 53 52 55 58 56 54 49 51 52 54 54 55 55 55 55 57 62 61 59 61 62 65 64 65 62 60 58 60 63 66 67 68 65 65 65 67 60 60 59 57 59 55 55
45 42 40 48 50 50 51 51 55 58 54 58 54 51 52 53 54 55 56 56 58 58 62 63 61 63 63 65 68 65 60 60 59 59 64 66 66 67 67 64 66 67 59 59 65 63 60 60 55
41 43 35 42 49 48 47 47 53 56 55 56 55 50 51 53 54 56 55 57 58 61 62 63 62 65 64 63 63 65 62 61 58 59 66 66 66 67 67 64 65 65 65 67 64 64 63 57 58
36 38 34 39 47 47 46 47 52 55 55 54 54 54 50 50 55 55 56 58 59 61 62 64 64 66 65 63 63 63 61 59 61 62 65 66 66 67 66 68 65 66 64 65 66 67 64 59 60
30 31 30 31 39 45 43 45 47 55 54 54 54 54 53 54 54 55 57 57 59 62 62 65 65 66 66 63 63 64 63 64 60 61 63 65 67 66 67 68 68 69 67 64 67 66 67 65 60
24 26 30 29 34 42 46 43 46 48 51 53 53 53 53 54 55 57 55 56 58 60 62 65 66 67 67 65 64 65 62 59 58 61 61 64 66 65 66 67 68 69 67 68 66 66 68 67 60
21 30 25 25 29 41 40 42 45 48 48 50 51 51 53 54 54 52 57 57 57 59 62 64 67 67 67 67 67 64 63 61 63 57 64 64 68 66 65 67 68 70 68 65 69 68 68 66 63
18 25 28 28 28 30 29 30 41 39 41 47 50 50 51 54 54 57 55 54 59 60 60 63 66 68 68 67 67 66 65 64 63 61 61 62 63 66 67 66 68 69 68 67 67 69 69 69 69
15 22 23 21 21 24 34 31 33 39 37 41 46 50 52 52 55 56 56 57 58 59 59 61 65 67 68 66 67 66 66 66 65 64 62 59 58 59 68 68 68 67 69 68 67 69 70 69 67
12 20 19 27 27 30 33 26 30 36 37 42 47 51 55 56 55 55 56 57 57 58 60 60 64 67 68 66 67 68 67 65 65 66 64 61 58 58 69 68 66 66 68 69 68 67 66 66 67
11 18 19 25 29 27 33 28 35 35 34 42 46 50 51 53 56 56 56 57 59 59 60 62 64 66 67 66 67 67 68 67 63 65 65 64 64 61 64 66 65 65 68 66 67 67 65 66 68
22 20 17 20 25 25 23 22 26 33 33 37 42 45 47 51 55 57 57 57 59 59 60 62 63 66 66 66 66 66 66 66 66 67 66 65 68 65 65 65 65 66 66 67 68 66 67 66 67
17 19 19 19 18 17 18 23 25 29 35 37 41 43 47 50 53 55 58 58 59 59 61 62 64 66 66 65 66 65 65 65 66 65 65 66 66 67 65 68 67 68 68 68 69 68 68 68 67
23 17 16 15 18 18 18 25 32 32 34 37 44 46 49 51 53 55 57 59 60 60 61 62 62 63 64 66 67 66 67 65 64 65 65 67 69 66 67 67 67 67 67 67 68 67 64 64 65

GFSSGP_sfc_30mbdewp_162.txt.gz
Dewpoint
69 68 68 66 58 54 47 42 40 44 45 47 51 50 50 54 54 55 63 64 63 65 69 70 71 70 71 72 71 70 69 70 70 72 72 72 72 72 72 73 72 72 72 73 73 73 73 72 73
64 65 61 62 53 48 44 44 44 44 47 51 51 50 52 54 59 61 62 63 62 64 68 68 71 70 70 70 69 70 71 72 71 72 72 72 72 72 73 73 72 72 72 72 72 73 73 73 72
65 63 57 54 52 49 43 44 42 43 48 49 49 50 50 57 60 61 63 64 62 65 67 69 70 70 69 70 69 66 68 72 72 72 72 72 72 72 72 71 72 72 73 72 71 71 71 71 70
61 60 56 52 50 53 45 43 44 44 47 51 49 49 53 58 61 62 63 64 64 64 66 70 69 69 69 70 69 71 72 71 72 72 72 72 72 72 72 72 72 72 72 72 72 72 72 71 70
60 58 57 52 52 44 45 44 46 45 47 50 50 50 53 59 60 61 63 63 62 63 65 67 69 69 69 69 68 70 71 71 72 72 72 72 72 72 72 73 72 73 72 72 72 72 72 72 71
57 60 52 51 54 46 46 44 43 46 46 50 50 51 52 56 58 59 62 62 61 60 64 65 67 67 68 70 71 70 71 71 72 72 72 72 72 72 72 72 71 71 72 72 73 72 72 72 71
55 58 52 54 54 54 50 46 43 44 45 47 50 49 51 51 57 58 59 59 59 60 63 62 65 66 67 70 71 71 71 70 70 71 71 71 72 72 72 71 71 71 72 72 72 73 72 72 72
52 57 52 52 49 53 59 51 48 45 45 50 49 48 49 51 52 58 59 59 58 60 61 64 66 68 70 70 70 70 70 69 68 69 69 70 71 72 72 73 72 72 72 71 71 72 73 73 72
52 55 48 52 51 55 58 49 51 48 46 50 51 50 51 52 51 55 57 58 59 60 65 66 68 70 69 70 69 69 69 69 68 69 70 72 72 72 71 72 72 72 72 71 70 70 70 71 72
53 53 55 54 53 54 58 59 53 46 46 49 49 52 52 51 51 51 59 56 60 63 66 66 68 68 67 67 70 70 70 70 68 68 71 72 70 70 69 71 72 72 71 70 69 70 70 70 67
53 54 52 51 53 53 59 57 60 49 47 50 50 51 51 51 52 50 51 58 57 63 65 69 67 64 68 68 70 70 71 71 71 70 71 70 69 69 66 70 69 70 70 69 68 68 69 67 68
53 55 52 53 53 52 55 61 57 55 54 52 51 52 51 51 50 49 50 51 58 60 64 68 68 66 70 68 68 68 70 69 69 70 70 69 65 65 65 68 68 67 68 68 67 66 65 64 65
53 50 53 54 55 56 56 55 57 50 52 57 51 51 51 50 51 49 49 52 56 60 62 62 68 69 68 66 66 66 69 69 69 69 68 66 66 65 65 66 65 65 67 65 64 63 63 63 63
49 51 51 54 54 56 54 56 58 52 53 51 50 50 51 51 51 50 50 52 53 60 63 63 65 69 66 65 67 68 70 70 66 65 65 67 64 66 66 62 66 64 63 63 64 67 62 63 61
49 52 55 54 54 55 55 52 54 60 60 49 50 51 52 52 52 51 51 52 53 58 63 61 64 65 68 65 69 70 68 62 63 63 65 70 70 64 70 70 67 66 67 66 63 64 63 61 60
50 56 49 52 53 55 52 49 53 55 55 56 51 51 53 51 51 51 52 52 54 57 62 60 59 62 65 65 67 68 64 63 66 66 68 59 62 68 69 69 67 66 66 63 64 64 64 61 60
52 46 47 51 53 51 49 48 54 56 57 57 50 48 51 51 52 53 53 53 55 60 62 60 63 62 63 65 66 68 66 65 63 64 67 60 60 70 70 62 60 68 64 64 67 65 63 60 58
45 45 49 51 55 53 50 49 52 56 57 55 56 55 51 53 52 54 55 54 55 61 63 61 64 65 65 67 69 67 66 62 63 67 68 68 69 68 68 61 63 69 67 70 66 63 67 62 62
44 45 44 52 52 51 50 50 52 53 54 56 54 54 50 53 55 56 55 56 56 60 63 64 64 67 67 67 67 64 66 64 64 69 70 68 68 68 70 69 67 68 69 61 69 69 65 63 61
44 42 40 45 45 51 48 52 53 52 55 52 52 55 52 51 57 56 56 56 58 61 64 66 66 68 67 66 67 66 67 64 64 68 69 65 66 68 69 69 69 69 69 68 69 69 68 67 64
39 37 36 33 39 45 52 51 51 52 53 54 49 56 53 53 54 58 61 57 59 61 64 66 67 69 67 66 67 65 66 64 66 69 68 67 67 67 69 69 70 71 69 69 69 70 69 64 59
22 27 33 30 29 33 43 42 50 51 51 53 52 49 53 55 56 61 58 60 59 62 64 67 69 69 68 69 65 65 64 63 63 67 67 68 68 68 69 69 69 70 71 69 70 67 69 57 57
18 28 30 28 26 28 39 38 48 50 50 53 53 53 53 52 57 55 57 59 62 64 67 67 69 69 69 69 68 66 64 64 65 63 64 69 70 69 67 69 70 70 71 70 69 70 70 70 68
15 22 28 28 25 22 26 36 45 47 50 55 54 52 52 52 54 57 58 61 63 68 67 67 69 69 70 69 67 67 65 67 65 64 66 67 69 68 69 69 70 71 71 69 69 71 71 72 71
5 13 15 21 20 20 36 35 43 48 51 53 50 58 55 54 54 55 57 56 63 64 66 65 69 69 70 69 68 69 67 66 67 66 64 65 64 67 68 70 71 71 71 70 68 70 71 71 71
4 9 13 20 32 36 39 31 39 44 40 53 54 51 53 54 55 54 57 56 57 62 64 65 68 69 69 70 70 69 70 68 67 69 66 64 65 66 69 70 71 69 71 70 70 70 70 69 70
7 8 14 18 36 37 39 35 36 36 37 38 44 50 52 53 54 57 58 58 59 59 62 63 69 69 70 69 69 70 70 69 67 67 68 66 68 69 71 71 69 71 68 71 70 69 69 70 68
16 13 13 16 18 31 37 38 33 35 34 38 43 44 48 51 54 54 57 58 59 59 59 64 69 69 69 69 69 68 69 70 70 68 69 66 68 68 67 68 67 69 70 68 69 68 67 69 69
13 20 19 19 20 22 28 34 37 34 35 36 38 41 45 48 51 53 56 56 60 61 60 65 69 68 69 69 68 68 68 69 69 69 68 69 68 69 66 69 68 69 69 70 69 69 70 68 67
14 18 20 17 20 20 18 31 31 33 37 36 39 43 48 48 51 54 56 58 61 61 61 64 65 67 68 68 68 68 68 68 68 67 68 69 69 69 64 58 69 69 68 69 68 69 68 68 64

GFSSGP_sfc_30mbdewp_165.txt.gz
Dewpoint
70 71 70 61 50 55 48 46 46 48 50 51 53 56 57 58 55 54 65 66 68 70 71 72 72 72 72 71 72 70 71 70 72 73 73 72 72 70 73 73 73 72 72 71 73 73 72 73 73
65 67 66 59 52 49 45 44 46 49 51 51 54 56 57 58 61 62 63 65 68 69 70 71 72 72 71 70 71 71 71 70 73 72 72 72 72 72 73 72 72 72 72 73 73 73 73 73 72
60 65 59 54 52 49 44 43 47 50 50 50 51 57 58 59 61 62 62 64 65 68 70 71 71 71 70 69 68 70 72 72 72 72 72 72 72 73 72 72 72 72 72 72 72 72 71 71 70
64 63 60 51 49 51 52 43 47 50 50 50 52 56 59 61 61 63 63 65 67 68 70 71 70 70 70 70 70 72 72 72 72 72 72 72 72 72 71 71 72 73 72 73 73 72 71 70 70
63 63 52 53 51 53 54 46 45 50 50 54 57 56 58 61 63 63 64 65 65 67 69 70 71 70 70 69 71 72 72 72 72 72 72 72 72 72 72 72 73 72 72 72 72 72 71 71 71
60 61 53 49 53 54 54 47 46 50 50 52 57 57 58 62 63 63 63 63 65 66 68 68 69 70 70 70 71 71 71 72 72 71 72 72 73 72 72 72 72 73 72 72 73 72 71 71 70
59 56 53 54 50 54 55 58 45 49 50 50 51 55 57 61 62 62 62 61 64 64 66 66 67 69 70 71 71 71 71 71 71 72 72 73 73 72 71 71 72 72 72 72 72 72 72 71 70
62 55 51 54 52 51 57 59 48 48 50 51 52 50 55 59 60 61 60 61 63 62 63 65 67 70 71 71 71 71 71 71 71 71 71 71 73 72 71 73 72 72 72 72 73 73 73 72 71
65 52 49 52 51 52 59 58 56 49 49 50 50 50 55 59 59 58 58 61 61 62 66 68 69 69 70 70 70 70 69 68 67 70 70 72 72 72 72 72 72 72 72 71 71 71 72 73 73
57 53 54 53 53 56 59 58 59 56 49 50 50 51 53 57 58 58 58 59 60 62 66 67 68 67 67 68 70 70 69 68 67 68 70 72 72 71 71 72 72 72 72 71 70 70 71 71 70
57 52 57 55 56 59 58 54 61 57 49 50 50 50 50 53 57 57 58 59 61 64 66 68 67 68 67 68 69 70 70 68 67 67 69 70 70 71 71 72 72 72 72 70 70 70 71 69 61
50 53 53 54 57 56 54 58 57 58 53 52 51 50 51 51 58 56 59 61 63 64 66 68 64 68 68 69 69 68 69 70 69 70 67 69 69 69 68 69 70 70 69 69 68 67 69 68 62
54 56 54 53 55 58 57 51 58 55 54 53 51 51 51 51 51 57 58 62 65 65 67 66 66 67 66 67 68 68 68 70 68 69 70 69 69 66 67 67 68 69 68 68 68 67 67 69 65
52 54 54 55 56 57 55 57 56 57 59 57 51 51 51 51 51 52 58 62 64 67 67 66 67 65 66 65 65 66 67 68 70 69 69 68 70 69 67 68 68 68 67 67 66 65 64 66 66
55 51 52 55 54 55 56 55 54 60 57 55 50 51 51 51 51 53 58 60 61 64 67 66 66 66 66 64 65 65 66 68 69 69 70 69 66 68 67 67 68 68 66 67 65 64 66 65 62
56 53 48 57 56 55 54 49 55 58 55 55 55 52 52 52 52 53 53 57 62 62 65 68 67 66 65 64 67 69 69 69 68 69 69 66 65 67 65 63 67 69 69 67 66 65 65 64 61
50 45 47 52 55 55 52 49 54 54 53 54 56 52 51 53 53 52 53 56 62 62 63 65 67 66 64 64 68 69 69 68 68 63 65 62 67 67 65 54 60 64 66 67 65 63 65 63 61
46 45 46 49 56 56 49 48 55 49 53 55 57 55 54 52 53 53 53 58 62 61 61 62 65 66 66 66 69 67 64 65 68 64 63 67 68 66 67 62 64 63 69 64 59 58 62 65 62
45 44 44 48 51 52 51 49 52 51 53 55 57 56 53 52 54 55 54 58 61 62 62 63 64 64 68 68 68 65 65 67 68 68 67 69 66 62 63 61 62 64 68 66 63 64 68 67 66
41 43 44 48 51 54 53 54 54 54 54 56 58 56 55 53 56 56 56 60 61 63 63 65 64 67 66 67 66 66 65 66 67 67 65 70 63 64 63 63 66 70 70 67 70 70 66 67 63
42 41 42 40 50 55 51 51 53 52 51 53 56 55 55 55 55 56 58 58 61 63 65 64 65 66 66 66 68 68 67 66 68 69 68 68 68 70 67 61 70 70 70 67 68 70 68 64 61
26 38 40 35 45 43 50 43 50 51 49 50 55 51 52 56 57 59 58 59 60 63 66 66 67 66 67 67 66 65 62 63 66 67 67 68 68 67 68 70 69 69 70 66 66 71 65 58 58
16 18 30 30 30 27 44 42 46 50 47 49 53 56 52 56 57 58 57 59 63 63 67 67 69 68 66 67 69 66 63 65 65 67 67 68 69 68 70 69 69 70 70 70 69 69 71 70 65
12 12 19 31 30 24 29 38 46 46 48 52 54 55 55 56 56 58 59 61 64 67 67 64 65 68 68 67 68 68 65 64 65 67 67 68 68 69 68 69 69 70 71 70 68 70 71 70 69
9 6 9 16 20 31 38 38 42 48 50 54 49 52 54 56 57 59 58 58 66 66 66 63 66 67 68 69 67 67 68 67 65 66 68 68 67 68 67 70 70 71 71 70 69 70 70 69 70
5 4 5 13 30 32 37 41 44 45 52 51 48 48 56 59 60 61 58 61 65 66 64 62 66 68 68 69 68 67 66 68 66 67 66 67 67 68 68 71 70 71 71 70 71 69 68 69 69
10 6 5 5 37 30 35 38 38 49 51 52 49 55 54 57 59 61 59 61 64 65 65 66 64 69 68 69 69 69 67 67 67 66 69 65 68 68 68 69 71 70 70 69 69 70 69 70 68
10 12 7 8 18 29 37 37 36 41 48 52 48 50 54 57 57 58 59 60 63 64 65 66 60 62 68 69 69 70 69 69 68 70 68 68 68 69 71 70 70 70 70 70 70 70 69 68 69
9 11 18 21 20 25 33 35 43 43 49 49 48 51 51 53 53 56 57 60 61 61 65 65 66 65 69 69 69 69 70 70 69 68 69 69 69 67 67 67 68 67 69 70 67 68 69 68 66
12 12 17 22 20 24 30 34 45 43 45 46 45 48 50 52 53 55 56 60 62 61 67 67 68 68 69 69 69 68 68 69 69 68 69 68 69 68 67 68 66 62 60 69 69 67 68 67 67

GFSSGP_sfc_30mbdewp_168.txt.gz
Dewpoint
71 71 69 60 50 54 49 48 50 49 51 56 57 58 58 60 57 53 66 69 70 71 72 72 73 72 72 72 73 72 71 72 72 72 72 71 70 72 74 73 73 72 72 73 73 73 73 73 73
70 69 64 58 50 48 46 49 49 51 55 57 57 57 57 58 62 65 66 69 70 71 71 72 73 72 71 71 71 71 71 73 73 73 72 71 71 73 73 73 72 72 72 73 72 73 73 73 73
62 66 55 53 51 48 48 49 50 52 55 54 57 58 59 59 63 63 67 69 69 70 71 72 72 71 71 71 72 71 72 72 73 72 73 73 73 72 72 72 72 73 73 73 73 73 72 70 69
65 63 59 51 49 52 52 53 50 51 54 56 57 57 60 62 62 62 66 68 68 70 70 72 71 71 70 69 72 72 73 72 72 72 72 71 72 72 72 72 72 72 71 73 73 71 70 70 69
66 60 50 50 51 53 54 55 51 52 55 55 55 57 59 62 62 63 66 68 68 69 71 71 72 71 69 69 71 73 72 72 72 72 72 72 73 71 72 72 72 72 72 72 72 71 71 71 70
60 59 51 48 51 54 55 56 53 52 56 55 57 58 60 63 62 64 66 66 68 69 70 71 71 70 70 71 72 72 72 72 73 73 73 73 73 73 73 72 72 72 72 72 72 72 71 71 70
58 57 52 54 53 54 56 57 57 55 55 55 57 56 61 62 63 64 65 66 67 68 68 69 70 70 70 71 72 72 72 72 72 73 73 73 73 72 72 72 72 72 72 72 72 72 71 70 70
59 58 51 54 51 51 55 60 56 52 51 57 57 57 59 62 63 63 64 65 65 66 66 67 69 71 71 71 71 71 71 71 72 72 73 73 72 72 72 73 73 72 72 72 72 72 72 73 73
65 54 50 51 53 52 55 59 59 54 53 53 53 59 61 62 61 60 62 62 62 65 67 69 69 70 70 71 71 71 72 72 71 71 72 73 73 71 72 72 73 72 72 71 71 72 72 72 71
60 53 52 54 54 53 54 58 59 51 50 50 57 60 61 60 58 60 60 60 63 65 67 68 68 69 69 70 70 70 70 68 69 70 71 72 72 72 72 72 72 72 72 72 71 71 71 71 66
57 52 56 57 54 58 58 56 59 58 49 52 57 58 59 58 57 59 60 60 62 65 66 67 67 68 68 69 70 70 69 68 66 68 70 70 70 71 72 72 72 72 72 71 70 71 71 66 62
55 55 56 57 58 59 55 59 57 57 51 52 57 58 58 57 57 58 59 60 62 64 66 67 67 68 68 69 69 68 67 67 67 69 67 69 69 69 70 70 70 70 70 69 69 69 69 64 63
53 54 56 57 56 56 56 56 56 57 56 51 54 57 57 58 58 58 59 61 63 64 66 67 66 68 67 68 68 68 68 68 68 68 70 70 68 67 67 68 68 69 69 68 67 68 68 68 62
56 58 56 57 57 56 55 56 56 58 59 52 50 51 53 57 57 59 60 61 64 64 65 66 66 67 66 66 66 66 67 68 69 69 68 66 68 68 67 68 68 68 68 68 68 67 67 68 65
55 52 55 58 58 55 57 55 54 59 59 57 50 51 51 52 58 60 61 62 63 65 66 65 66 66 65 65 65 65 66 67 68 69 68 65 67 66 66 66 67 69 67 68 67 67 66 67 67
49 54 48 55 55 56 54 51 55 60 56 56 51 51 51 53 55 60 62 64 65 66 66 66 64 66 64 63 65 65 66 67 68 69 65 64 66 65 65 64 65 66 64 67 67 65 65 65 65
53 47 47 54 58 56 52 50 55 58 56 55 56 54 52 53 57 60 62 64 65 66 66 65 66 65 63 63 65 67 68 68 68 68 67 63 67 66 63 60 62 63 63 67 67 64 65 64 62
42 46 47 48 52 52 52 50 54 53 55 56 57 56 54 53 53 56 59 62 64 67 66 66 67 66 64 63 66 68 68 68 68 65 65 63 67 65 62 61 62 63 62 67 60 60 65 67 63
33 46 44 49 55 53 52 52 51 52 55 55 57 56 56 54 54 53 59 62 62 64 66 66 66 66 65 64 64 66 65 66 67 64 65 65 64 64 65 62 61 62 61 67 67 64 67 62 64
46 44 43 50 53 52 53 52 54 54 52 54 56 58 57 54 55 54 60 61 61 62 63 65 66 66 66 67 67 65 65 67 68 66 65 65 65 64 61 62 60 60 67 69 67 69 67 65 66
42 39 42 45 52 55 53 48 51 54 54 55 57 59 59 55 55 56 59 60 61 61 63 65 65 66 67 68 67 68 68 68 67 67 67 66 66 63 62 60 62 69 70 68 68 69 66 61 65
38 42 43 49 48 44 52 42 46 48 50 52 56 57 59 56 56 58 60 60 61 62 64 64 65 66 66 67 66 66 64 64 66 67 68 68 65 62 68 61 67 69 69 66 67 70 65 59 59
28 24 40 46 47 48 50 46 45 50 48 51 52 56 55 55 56 58 59 60 62 63 65 67 66 66 66 66 66 66 64 64 66 66 67 69 67 68 69 69 69 69 70 69 69 70 69 68 63
12 11 12 26 35 27 40 47 43 46 44 49 51 53 56 53 57 59 58 62 63 66 67 67 67 66 66 66 67 66 65 63 66 66 67 66 68 68 69 69 69 69 70 69 69 69 70 70 68
9 8 6 7 15 24 38 37 39 44 47 48 49 52 56 55 56 59 59 62 64 66 66 66 66 67 67 66 66 67 68 66 65 66 66 66 67 68 68 69 68 69 70 70 69 69 70 69 69
5 7 5 6 21 31 39 32 34 45 47 50 53 54 56 56 58 59 59 62 64 66 65 64 65 64 68 68 67 67 67 68 66 66 68 67 67 67 67 69 69 70 70 71 70 68 69 69 69
7 6 7 19 37 29 32 41 41 46 48 50 53 51 55 58 58 58 59 60 62 64 65 64 64 65 65 67 68 68 67 67 68 67 68 68 68 68 68 68 70 70 70 70 70 70 68 69 68
10 11 7 13 13 17 36 37 33 44 48 49 49 49 54 57 60 60 60 59 62 63 65 66 64 64 66 67 67 68 67 67 67 67 66 68 67 68 69 68 70 70 70 69 69 69 69 68 68
9 8 14 14 17 17 26 32 42 45 49 49 52 52 49 53 57 59 61 62 61 66 66 65 65 65 68 68 68 67 68 68 68 67 68 68 68 68 69 70 70 69 69 70 69 69 69 68 67
11 8 11 13 17 25 30 31 45 47 49 50 52 52 50 55 56 58 59 60 62 64 66 65 65 64 64 67 69 69 68 69 68 68 68 69 69 68 68 69 68 68 69 69 68 68 69 68 67

GFSSGP_sfc_30mbdewp_171.txt.gz
Dewpoint
71 70 68 60 51 53 48 48 50 50 52 57 57 56 57 60 56 52 67 69 70 71 72 72 73 72 72 71 73 73 72 72 72 72 72 71 73 74 73 73 73 73 73 72 73 71 71 70 69
70 70 64 58 50 46 47 50 49 52 56 57 58 58 58 58 63 65 67 70 70 72 72 72 73 72 72 72 72 71 72 72 72 72 71 70 72 72 73 73 72 72 73 72 72 72 71 70 70
65 65 54 52 50 48 50 54 52 54 56 55 57 59 59 60 64 64 68 70 71 71 72 72 72 72 71 71 71 71 72 73 73 72 72 72 72 72 72 72 72 73 72 73 72 72 72 72 71
66 60 58 49 48 52 52 54 55 53 55 57 59 58 61 63 63 66 69 69 70 71 71 72 71 71 71 72 71 72 72 72 72 73 72 72 72 71 71 72 73 73 73 72 71 70 69 69 69
67 59 51 49 50 53 53 55 57 52 55 56 57 58 59 62 64 67 68 68 69 70 71 71 71 71 70 72 72 72 72 72 72 72 72 72 72 72 72 72 72 72 73 72 71 70 70 70 70
59 60 50 48 50 54 55 57 57 55 56 56 58 58 60 62 64 66 68 68 69 70 71 71 72 70 69 70 72 72 72 72 72 72 73 73 71 72 72 73 72 72 72 72 72 71 71 70 69
52 52 51 52 53 53 55 58 57 54 54 55 57 58 61 61 64 66 66 68 69 70 70 70 71 70 71 71 72 72 72 72 73 73 73 73 73 73 73 72 72 72 72 71 71 71 70 71 71
57 56 52 53 51 52 55 59 59 54 54 57 59 57 58 62 64 64 66 67 67 67 68 69 70 70 71 71 72 71 72 72 73 72 72 73 72 72 72 73 72 71 72 72 72 72 72 72 72
61 53 49 50 53 52 56 58 58 57 55 56 57 59 61 63 63 63 64 64 65 65 67 69 70 70 71 71 71 71 72 72 72 72 72 73 72 72 72 73 72 72 71 71 71 71 71 72 71
58 52 51 53 55 53 55 58 58 54 54 57 59 61 62 62 61 62 62 62 63 65 67 68 69 70 70 71 70 71 71 70 71 71 72 72 72 72 72 73 72 72 72 71 71 71 71 71 67
59 51 55 56 55 56 58 58 59 55 52 56 57 60 61 60 61 62 62 61 63 65 67 68 68 68 69 69 69 69 67 67 68 70 70 70 69 71 72 71 72 72 72 72 70 70 70 69 65
54 57 57 58 56 59 56 59 57 58 54 58 60 60 60 58 60 60 60 60 63 65 66 67 67 67 68 69 69 68 66 66 68 69 67 69 69 69 70 70 70 70 70 68 69 68 68 68 64
53 53 57 58 58 58 58 56 56 54 53 58 60 59 58 57 59 60 60 61 62 64 66 66 67 67 67 68 68 68 67 68 68 68 69 69 68 67 68 68 68 68 69 68 68 67 68 68 67
56 57 57 56 55 55 56 56 56 59 57 58 58 58 58 57 57 58 59 60 61 64 65 65 67 67 67 67 67 67 68 68 69 69 68 67 68 68 66 67 67 68 67 67 68 68 67 67 67
56 54 55 57 58 56 57 53 54 59 59 55 57 57 58 57 57 57 58 60 61 63 65 65 66 66 66 66 66 65 66 67 67 69 67 66 67 68 67 67 66 68 65 66 67 67 67 67 68
51 51 48 55 57 57 54 50 56 60 58 55 55 56 56 57 58 58 59 60 64 64 65 65 64 66 65 65 65 65 65 67 67 68 69 66 66 66 66 65 66 65 64 67 66 65 64 65 66
52 45 47 50 56 56 53 51 56 59 58 56 57 57 52 54 57 59 60 60 64 64 65 65 64 65 64 64 64 65 66 66 67 68 68 64 66 65 64 63 64 64 64 68 64 63 65 65 63
36 45 48 47 53 53 52 50 55 57 57 57 56 57 54 54 57 59 60 62 64 65 66 65 64 64 64 63 65 67 68 68 68 67 67 66 65 67 65 61 63 64 63 66 64 61 67 66 63
31 44 44 50 53 53 52 51 53 54 54 56 56 57 57 55 56 60 61 63 64 66 66 65 65 65 63 62 64 66 65 66 67 66 66 65 64 66 64 61 63 62 61 65 67 67 66 63 63
40 40 46 50 54 53 51 51 54 54 52 54 56 55 58 56 54 58 61 62 64 65 65 66 66 65 64 63 65 65 65 66 66 66 64 64 64 65 64 63 61 60 65 68 67 69 67 64 66
39 43 45 46 52 54 51 47 50 54 53 54 56 56 56 58 54 53 59 61 63 64 65 65 65 65 65 65 66 67 66 68 68 66 64 64 65 66 60 61 60 64 69 67 68 69 66 61 64
17 36 42 49 49 42 49 41 47 50 53 53 54 57 56 58 57 54 59 61 61 62 64 64 65 66 66 67 66 66 65 64 66 66 63 65 66 65 63 63 61 68 69 67 66 70 65 59 60
18 39 43 50 48 48 50 45 45 49 45 51 53 53 58 58 58 56 59 60 61 61 63 64 65 66 66 67 66 66 64 64 66 66 65 66 66 66 65 67 61 68 69 68 68 68 64 65 61
25 19 33 43 44 37 37 45 39 45 45 46 51 54 56 57 57 57 59 60 61 62 64 65 65 65 66 66 66 65 64 63 65 66 66 66 67 67 66 68 68 69 69 69 69 69 70 70 67
12 9 7 9 27 27 38 45 40 42 48 46 47 53 54 56 56 58 58 60 62 63 66 66 66 65 66 66 66 66 65 64 64 66 66 66 67 67 67 68 69 69 69 70 69 68 69 69 69
7 6 5 4 10 27 41 34 30 43 46 49 50 52 54 56 55 58 59 61 61 64 66 65 66 65 65 66 66 67 67 67 65 65 66 66 66 67 67 68 69 69 69 70 70 68 69 70 69
7 4 9 22 35 30 27 34 39 43 47 50 50 53 56 56 56 57 59 61 62 64 65 65 66 65 66 66 66 66 67 67 67 66 67 67 67 67 67 67 68 69 69 70 70 69 68 68 68
10 9 5 13 9 13 22 36 28 35 41 50 52 52 56 56 58 58 59 60 62 64 65 66 66 65 65 67 67 67 66 66 67 67 66 67 67 68 68 67 68 68 69 70 70 69 69 69 68
10 9 13 12 14 6 10 25 38 37 43 45 50 50 52 58 59 59 59 60 60 64 65 65 65 64 65 65 66 67 68 67 66 67 67 67 67 67 68 68 68 68 70 70 69 68 68 68 68
11 10 13 10 12 26 28 26 37 43 45 48 49 53 51 53 56 59 61 61 60 62 64 65 65 65 65 65 67 67 67 68 67 66 67 68 67 68 67 68 69 69 70 69 69 67 69 68 67

GFSSGP_sfc_30mbdewp_174.txt.gz
Dewpoint
70 70 67 59 51 52 48 50 50 50 54 58 58 55 56 59 55 50 67 68 70 71 72 72 73 72 72 72 72 73 72 72 72 72 71 73 73 73 73 73 73 73 72 71 71 71 70 70 70
71 70 63 58 49 46 50 54 52 54 57 59 58 58 58 58 63 65 66 70 70 71 72 72 73 73 72 72 73 72 72 72 72 72 71 72 73 73 73 72 73 73 72 71 71 71 70 70 70
70 66 54 52 50 49 50 54 53 55 57 56 58 59 59 59 64 65 68 70 71 71 72 72 73 72 72 72 72 71 72 72 72 72 71 72 72 73 73 72 73 72 72 72 72 71 70 70 70
65 59 57 49 49 52 52 53 55 54 55 58 59 58 61 64 64 66 70 70 71 71 72 72 72 72 71 71 71 72 72 73 72 72 72 72 72 72 72 73 72 72 73 72 71 71 71 70 70
66 59 50 49 51 53 54 55 56 54 55 57 57 58 60 63 67 68 69 70 70 70 71 72 72 71 72 72 72 72 73 72 72 72 72 72 71 71 72 73 72 73 72 71 70 70 69 70 70
54 58 49 47 51 54 55 58 57 56 56 57 58 59 60 64 66 67 68 69 70 70 71 72 72 71 71 72 71 71 72 72 72 72 72 72 72 72 72 72 72 72 71 71 71 71 71 70 69
52 52 50 52 53 53 54 58 58 54 54 55 59 57 60 63 65 67 68 69 69 70 71 71 71 70 70 71 70 72 72 72 72 72 72 72 72 73 72 72 72 71 71 71 71 70 70 70 70
58 55 50 53 51 50 56 59 60 53 54 58 59 55 57 62 65 66 67 68 68 69 69 70 70 71 71 71 71 72 72 71 72 73 73 72 73 73 73 73 72 71 71 70 70 71 71 72 72
62 50 47 48 51 53 58 57 57 57 55 56 58 60 61 63 65 65 65 66 66 66 68 69 70 70 71 71 71 72 72 72 72 72 72 72 72 72 73 73 71 71 72 71 71 71 71 72 71
56 52 50 52 54 53 57 58 58 57 55 58 59 62 62 63 63 63 64 64 65 65 67 69 70 70 71 71 71 71 71 71 72 72 72 72 72 72 72 73 72 72 72 71 71 71 72 71 67
58 51 54 56 55 55 57 56 58 55 53 57 56 60 62 62 62 63 63 63 64 65 67 68 69 69 70 70 70 69 69 69 70 70 71 71 70 72 72 71 72 72 72 71 70 68 69 69 66
56 56 57 57 57 58 55 58 58 56 55 57 59 61 61 60 61 62 62 62 63 65 66 68 68 68 69 70 69 68 66 67 69 68 69 69 69 70 70 70 70 69 69 67 67 68 68 68 67
55 53 58 58 58 58 59 56 56 56 58 59 60 61 60 60 61 61 61 61 63 64 66 67 67 67 68 68 68 67 67 67 68 68 69 69 69 68 69 68 67 68 68 68 68 68 68 67 69
56 58 57 56 57 58 57 57 56 58 58 59 60 59 59 59 60 60 60 60 62 64 65 66 67 67 67 68 68 67 68 69 69 68 68 68 68 68 67 67 67 68 67 67 67 68 68 67 68
56 55 57 58 55 55 57 54 55 58 59 58 59 59 59 58 58 59 59 60 61 64 65 65 66 67 67 67 67 67 67 67 67 69 67 66 67 68 67 67 67 67 65 67 67 67 68 67 68
52 51 48 55 57 57 54 49 56 58 56 57 58 58 58 58 57 58 58 59 61 63 65 65 65 66 66 66 66 65 66 67 67 68 69 67 66 67 67 66 67 65 65 68 66 65 65 65 66
50 43 46 48 56 56 54 50 56 59 58 56 56 57 57 58 58 58 58 59 62 63 64 65 64 66 65 65 65 65 65 65 67 68 69 67 64 66 65 65 65 64 66 64 63 65 67 63 64
32 39 46 46 53 54 53 51 56 59 59 58 55 57 57 56 57 58 58 59 63 64 65 65 64 65 65 64 64 65 66 66 67 67 67 68 64 67 65 63 63 64 65 67 61 67 65 64 63
33 38 38 48 53 51 52 51 52 57 57 57 58 57 57 54 53 58 59 60 64 65 65 64 63 64 63 62 63 65 64 66 66 67 67 67 66 66 65 62 63 64 63 67 66 68 64 64 63
24 33 39 49 53 52 53 52 52 54 54 56 57 57 57 55 55 58 60 60 64 64 65 65 64 64 63 62 64 65 65 66 66 67 66 66 65 64 65 64 62 62 66 68 67 68 67 65 66
29 33 42 43 52 53 53 49 52 55 54 54 56 57 57 57 54 58 61 62 63 64 65 65 65 65 64 63 65 66 66 68 67 66 65 64 65 64 64 62 62 61 68 67 69 69 66 62 65
14 30 36 47 48 42 49 37 46 52 54 53 53 55 56 58 57 56 59 61 62 63 65 65 66 65 65 64 64 65 64 63 65 65 65 64 65 65 65 62 61 63 69 67 66 69 65 60 61
13 27 36 50 47 48 49 43 42 49 49 52 53 53 55 57 57 56 55 60 62 63 64 65 66 66 66 66 65 65 65 64 65 67 66 64 65 65 65 65 62 65 69 69 67 69 65 64 63
27 35 37 42 44 40 41 43 36 44 43 47 53 54 54 57 58 58 56 58 61 63 64 65 65 65 66 66 66 65 65 64 64 65 65 65 66 66 66 66 67 63 68 69 68 69 69 69 67
16 24 20 31 39 36 43 45 39 41 46 46 47 53 54 55 57 58 57 58 60 62 63 64 65 65 66 66 66 66 66 65 64 64 65 65 66 66 67 67 67 68 69 69 69 69 69 70 69
11 13 9 4 7 18 46 38 32 40 45 49 49 50 54 55 57 58 58 58 59 61 63 64 65 65 66 66 65 66 66 66 65 65 66 66 66 66 67 67 68 68 69 69 70 69 69 69 69
8 7 10 20 34 29 32 30 31 41 46 49 49 52 54 55 56 57 58 59 60 62 64 65 65 65 65 66 66 66 67 66 65 65 66 66 67 67 67 68 68 69 69 69 70 70 69 69 69
10 11 7 13 9 11 13 27 19 18 41 49 49 50 53 55 56 56 58 59 61 61 64 65 65 66 65 66 66 66 66 67 67 67 66 67 67 67 67 67 68 68 69 70 70 69 69 69 69
9 8 12 11 11 6 6 8 31 33 40 47 50 52 55 56 56 56 58 60 61 63 65 65 66 66 66 66 66 66 66 67 67 67 67 67 68 67 68 68 68 68 68 70 69 69 69 68 68
12 11 13 8 10 20 16 17 36 40 44 47 50 52 54 57 58 59 60 60 61 63 65 65 66 65 65 65 67 67 67 67 67 66 67 68 67 68 67 68 69 68 68 69 70 69 69 68 67